Killeen/Ft Hood, TX

3:30 AM CDT on June 24, 2017 (GMT -0500)
Hood Army Air Field

Weather History for KHLR - March, 2014

Change the Weather History Date:

Sunday, March 23, 2014

  Actual Average Record
Temperature  
Mean Temperature 50 °F -  
Max Temperature 57 °F 69 °F 89 °F (2011)
Min Temperature 44 °F 51 °F 35 °F (2006)
Degree Days  
Heating Degree Days 14    
Moisture  
Dew Point 40 °F    
Average Humidity 66    
Maximum Humidity 83    
Minimum Humidity 46    
Precipitation  
Precipitation 0.11 in - - ()
Sea Level Pressure  
Sea Level Pressure 30.28 in    
Wind  
Wind Speed 12 mph (NNW)    
Max Wind Speed 20 mph    
Max Gust Speed 26 mph    
Visibility 10 miles    
Events Rain , Thunderstorm    
Averages and records for this station are not official NWS values.
T = Trace of Precipitation, MM = Missing Value Source: NWS Daily Summary

Daily Weather History Graph

Daily Weather History Graph

Search for Another Location

Airport or City:

Trip Planner

Search our weather history database for the weather conditions in past years. The results will help you decide how hot, cold, wet, or windy it might be!

Date:

Astronomy

Mar. 23, 2014 Rise Set
Actual Time 7:30 AM CDT 7:44 PM CDT
Civil Twilight 7:06 AM CDT 8:08 PM CDT
Nautical Twilight 6:38 AM CDT 8:36 PM CDT
Astronomical Twilight 6:09 AM CDT 9:05 PM CDT
Moon 1:44 AM CDT (3/23) 12:31 PM CDT (3/23)
Length of Visible Light 13h 01m
Length of Day
12h 13m
Waning Gibbous, 54% of the Moon is Illuminated
Mar 23
Waning Gibbous
Mar 23
Last Quarter
Mar 30
New
Apr 7
First Quarter
Apr 15
Full

Hourly Weather History & Observations

Time (CDT) Temp. Windchill Dew Point Humidity Pressure Visibility Wind Dir Wind Speed Gust Speed Precip Events Conditions
12:56 AM 55.9 °F - 44.1 °F 64% 30.18 in 10.0 mi NW 11.5 mph - N/A   Overcast
1:06 AM 55.4 °F - 44.6 °F 67% 30.09 in 10.0 mi NW 13.8 mph - N/A   Overcast
1:56 AM 55.0 °F - 45.0 °F 69% 30.18 in 10.0 mi NNW 12.7 mph 18.4 mph N/A   Overcast
2:56 AM 54.0 °F - 45.0 °F 72% 30.19 in 10.0 mi NNW 13.8 mph 20.7 mph N/A   Overcast
3:10 AM 53.6 °F - 44.6 °F 72% 30.12 in 10.0 mi NNW 13.8 mph 19.6 mph N/A   Overcast
3:35 AM 53.6 °F - 44.6 °F 72% 30.11 in 10.0 mi NNW 10.4 mph 19.6 mph N/A   Overcast
3:56 AM 53.1 °F - 44.1 °F 71% 30.19 in 10.0 mi NNW 12.7 mph 18.4 mph N/A   Overcast
4:56 AM 54.0 °F - 43.0 °F 66% 30.22 in 10.0 mi NNW 9.2 mph 19.6 mph N/A   Overcast
5:56 AM 54.0 °F - 41.0 °F 62% 30.25 in 10.0 mi North 13.8 mph 21.9 mph N/A   Overcast
6:56 AM 54.0 °F - 37.9 °F 55% 30.27 in 10.0 mi North 17.3 mph 25.3 mph N/A   Overcast
7:56 AM 53.1 °F - 39.9 °F 61% 30.32 in 10.0 mi North 11.5 mph 24.2 mph N/A   Overcast
8:56 AM 54.0 °F - 39.0 °F 57% 30.33 in 10.0 mi North 19.6 mph 26.5 mph N/A   Overcast
9:56 AM 53.1 °F - 39.9 °F 61% 30.36 in 10.0 mi North 13.8 mph 26.5 mph N/A   Overcast
10:56 AM 55.0 °F - 37.0 °F 51% 30.37 in 10.0 mi North 17.3 mph 25.3 mph N/A   Overcast
11:56 AM 57.9 °F - 37.0 °F 46% 30.34 in 10.0 mi North 16.1 mph 26.5 mph N/A   Mostly Cloudy
12:54 PM 55.4 °F - 35.6 °F 47% 30.28 in 10.0 mi North 13.8 mph 21.9 mph N/A Thunderstorm Thunderstorm
12:56 PM 55.9 °F - 36.0 °F 47% 30.38 in 10.0 mi North 11.5 mph 21.9 mph N/A Thunderstorm Thunderstorm
1:13 PM 55.4 °F - 35.6 °F 47% 30.28 in 10.0 mi North 15.0 mph 24.2 mph N/A Thunderstorm Thunderstorm
1:30 PM 55.4 °F - 35.6 °F 47% 30.25 in 10.0 mi North 17.3 mph 26.5 mph N/A   Overcast
1:44 PM 53.6 °F - 35.6 °F 51% 30.26 in 10.0 mi North 15.0 mph 23.0 mph N/A Thunderstorm Thunderstorm
1:56 PM 53.1 °F - 34.0 °F 48% 30.36 in 10.0 mi North 16.1 mph 20.7 mph N/A Thunderstorm Thunderstorm
2:13 PM 51.8 °F - 33.8 °F 50% 30.26 in 10.0 mi NNW 16.1 mph 21.9 mph N/A   Overcast
2:22 PM 51.8 °F - 33.8 °F 50% 30.26 in 10.0 mi North 16.1 mph 23.0 mph N/A Thunderstorm Thunderstorm
2:51 PM 46.4 °F 40.7 °F 35.6 °F 66% 30.29 in 10.0 mi NW 12.7 mph 20.7 mph N/A   Overcast
2:56 PM 46.9 °F - 36.0 °F 66% 30.42 in 10.0 mi WNW 19.6 mph 23.0 mph N/A Thunderstorm Thunderstorm
3:23 PM 44.6 °F 39.2 °F 39.2 °F 81% 30.26 in 10.0 mi NNW 10.4 mph - 0.01 in Rain Light Rain
3:56 PM 45.0 °F 39.3 °F 39.0 °F 80% 30.36 in 10.0 mi NW 11.5 mph - 0.03 in Rain Rain
4:56 PM 46.0 °F 41.4 °F 39.9 °F 79% 30.36 in 10.0 mi NW 9.2 mph - 0.01 in Rain Light Rain
5:56 PM 46.0 °F 41.4 °F 41.0 °F 83% 30.35 in 10.0 mi NW 9.2 mph - 0.06 in Rain Light Rain
6:56 PM 46.0 °F 41.4 °F 41.0 °F 83% 30.34 in 10.0 mi NW 9.2 mph - 0.01 in   Overcast
7:11 PM 46.4 °F 43.5 °F 41.0 °F 81% 30.23 in 10.0 mi NW 5.8 mph - N/A   Overcast
7:56 PM 46.9 °F - 41.0 °F 80% 30.34 in 10.0 mi NNW 3.5 mph - N/A   Overcast
8:08 PM 46.4 °F 43.5 °F 41.0 °F 81% 30.23 in 10.0 mi NW 5.8 mph - N/A   Overcast
8:56 PM 48.0 °F - 41.0 °F 77% 30.35 in 10.0 mi West 5.8 mph - N/A   Overcast
9:56 PM 48.0 °F - 42.1 °F 80% 30.36 in 10.0 mi WNW 3.5 mph - N/A   Overcast
10:56 PM 48.0 °F - 42.1 °F 80% 30.37 in 10.0 mi WNW 4.6 mph - N/A   Overcast
11:56 PM 48.9 °F - 42.1 °F 77% 30.35 in 10.0 mi WNW 4.6 mph - N/A   Overcast